TimeMDT,TemperatureF,Dew PointF,Humidity,Sea Level PressureIn,VisibilityMPH,Wind Direction,Wind SpeedMPH,Gust SpeedMPH,PrecipitationIn,Events,Conditions,WindDirDegrees,DateUTC
2:56 AM,28.9,27.0,92,29.62,-9999.0,Variable,4.6,-,0.01,,Unknown,0,2013-03-21 08:56:00
3:56 AM,26.1,21.9,84,29.62,-9999.0,Variable,5.8,-,0.06,,Unknown,0,2013-03-21 09:56:00
4:56 AM,25.0,21.0,85,29.63,-9999.0,Calm,Calm,-,0.03,,Unknown,0,2013-03-21 10:56:00
5:56 AM,24.1,21.0,88,29.67,-9999.0,Calm,Calm,-,0.01,,Unknown,0,2013-03-21 11:56:00
6:56 AM,23.0,19.9,88,29.68,-9999.0,Calm,Calm,-,N/A,,Unknown,0,2013-03-21 12:56:00
7:56 AM,23.0,19.9,88,29.69,-9999.0,Calm,Calm,-,0.02,,Unknown,0,2013-03-21 13:56:00
8:56 AM,21.9,19.0,89,29.69,-9999.0,Calm,Calm,-,0.09,,Unknown,0,2013-03-21 14:56:00
9:56 AM,19.9,15.1,81,29.74,-9999.0,Variable,5.8,-,0.04,,Unknown,0,2013-03-21 15:56:00
10:56 AM,23.0,16.0,74,29.73,-9999.0,WNW,8.1,-,N/A,,Unknown,290,2013-03-21 16:56:00
11:56 AM,24.1,14.0,65,29.74,-9999.0,WNW,11.5,19.6,N/A,,Unknown,290,2013-03-21 17:56:00
12:56 PM,23.0,10.9,60,29.76,-9999.0,WSW,8.1,17.3,N/A,,Unknown,240,2013-03-21 18:56:00
1:56 PM,23.0,12.9,65,29.78,-9999.0,West,10.4,18.4,N/A,,Unknown,270,2013-03-21 19:56:00
2:56 PM,24.1,9.0,53,29.78,-9999.0,West,15.0,23.0,N/A,,Unknown,270,2013-03-21 20:56:00
3:56 PM,23.0,6.1,48,29.82,-9999.0,Variable,4.6,31.1,N/A,,Unknown,0,2013-03-21 21:56:00
4:56 PM,23.0,3.0,42,29.84,-9999.0,WNW,11.5,20.7,N/A,,Unknown,290,2013-03-21 22:56:00
5:56 PM,21.9,7.0,53,29.87,-9999.0,West,6.9,18.4,N/A,,Unknown,270,2013-03-21 23:56:00
6:56 PM,19.0,6.1,57,29.88,-9999.0,NW,4.6,-,N/A,,Unknown,310,2013-03-22 00:56:00
7:56 PM,18.0,9.0,68,29.89,-9999.0,Variable,3.5,-,N/A,,Unknown,0,2013-03-22 01:56:00
8:56 PM,15.1,10.0,80,29.92,-9999.0,WNW,4.6,-,N/A,,Unknown,290,2013-03-22 02:56:00
9:56 PM,15.1,7.0,70,29.94,-9999.0,Calm,Calm,-,N/A,,Unknown,0,2013-03-22 03:56:00
10:56 PM,14.0,8.1,77,29.94,-9999.0,Calm,Calm,-,N/A,,Unknown,0,2013-03-22 04:56:00
11:56 PM,10.0,6.1,84,29.97,-9999.0,Calm,Calm,-,N/A,,Unknown,0,2013-03-22 05:56:00